Weather History for EIDW - September, 2011

Change the Weather History Date:

Tuesday, September 27, 2011

  Actual Average Record
Temperature  
Mean Temperature 60 °F -  
Max Temperature 68 °F 58 °F 68 °F (2011)
Min Temperature 51 °F 46 °F 35 °F (2007)
Degree Days  
Heating Degree Days 6    
Growing Degree Days 10 (Base 50)    
Moisture  
Dew Point 54 °F    
Average Humidity 81    
Maximum Humidity 100    
Minimum Humidity 68    
Precipitation  
Precipitation 0.00 in 0.09 in - ()
Sea Level Pressure  
Sea Level Pressure 30.19 in    
Wind  
Wind Speed 8 mph ()    
Max Wind Speed 20 mph    
Max Gust Speed 21 mph    
Visibility 7.0 miles    
Events      
Averages and records for this station are not official NWS values.
T = Trace of Precipitation, MM = Missing Value Source: Averaged Metar Reports

Daily Weather History Graph

Daily Weather History Graph

Search for Another Location

Airport or City:

Trip Planner

Search our weather history database for the weather conditions in past years. The results will help you decide how hot, cold, wet, or windy it might be!

Date:

Astronomy

Sep. 27, 2011 Rise Set
Actual Time 7:18 AM IST 7:12 PM IST
Civil Twilight 6:44 AM IST 7:47 PM IST
Nautical Twilight 6:03 AM IST 8:28 PM IST
Astronomical Twilight 5:20 AM IST 9:10 PM IST
Moon 7:24 AM IST (9/27) 6:41 PM IST (9/27)
Length of Visible Light 13h 03m
Length of Day
11h 53m
Waning Crescent, 0% of the Moon is Illuminated
Sep 27
Waning Crescent
Sep 27
New
Oct 4
First Quarter
Oct 12
Full
Oct 20
Last Quarter

Hourly Weather History & Observations

Time (IST) Temp. Dew Point Humidity Pressure Visibility Wind Dir Wind Speed Gust Speed Precip Events Conditions
12:00 AM 55.4 °F 50.0 °F 82% 30.15 in 6.2 mi South 4.6 mph - N/A   Mostly Cloudy
12:30 AM 55.4 °F 50.0 °F 82% 30.15 in 6.2 mi South 4.6 mph - N/A   Mostly Cloudy
1:00 AM 56 °F 50 °F 75% 30.17 in 19 mi SE 4.5 mph - -   Partly Cloudy
1:00 AM 55.4 °F 50.0 °F 82% 30.15 in 6.2 mi Variable 3.5 mph - N/A   Mostly Cloudy
1:30 AM 57.2 °F 50.0 °F 77% 30.15 in 6.2 mi SSE 3.5 mph - N/A   Mostly Cloudy
2:00 AM 57.2 °F 50.0 °F 77% 30.15 in 6.2 mi SSE 4.6 mph - N/A   Mostly Cloudy
2:30 AM 55.4 °F 50.0 °F 82% 30.15 in 6.2 mi Variable 3.5 mph - N/A   Mostly Cloudy
3:00 AM 53.6 °F 50.0 °F 88% 30.15 in 6.2 mi Variable 3.5 mph - N/A   Mostly Cloudy
3:30 AM 55.4 °F 50.0 °F 82% 30.15 in 6.2 mi SSE 3.5 mph - N/A   Mostly Cloudy
4:00 AM 55.4 °F 50.0 °F 82% 30.15 in 6.2 mi SE 4.6 mph - N/A   Mostly Cloudy
4:30 AM 53.6 °F 50.0 °F 88% 30.15 in 6.2 mi SE 3.5 mph - N/A   Scattered Clouds
5:00 AM 55.4 °F 51.8 °F 88% 30.15 in 6.2 mi WSW 4.6 mph - N/A   Scattered Clouds
5:30 AM 57.2 °F 51.8 °F 82% 30.15 in 6.2 mi SW 4.6 mph - N/A   Mostly Cloudy
6:00 AM 55.4 °F 50.0 °F 82% 30.15 in 6.2 mi SE 4.6 mph - N/A   Scattered Clouds
6:30 AM 55.4 °F 51.8 °F 88% 30.15 in 6.2 mi Variable 3.5 mph - N/A   Scattered Clouds
7:00 AM 57 °F 52 °F 78% 30.18 in 19 mi SSW 4.5 mph - -   Scattered Clouds
7:00 AM 57.2 °F 51.8 °F 82% 30.15 in 6.2 mi Variable 3.5 mph - N/A   Scattered Clouds
7:30 AM 55.4 °F 51.8 °F 88% 30.15 in 6.2 mi South 4.6 mph - N/A   Scattered Clouds
8:00 AM 57.2 °F 51.8 °F 82% 30.18 in 6.2 mi SW 10.4 mph - N/A   Scattered Clouds
8:30 AM 57.2 °F 53.6 °F 88% 30.18 in 6.2 mi SW 12.7 mph - N/A   Scattered Clouds
9:00 AM 59.0 °F 53.6 °F 82% 30.18 in 6.2 mi SW 12.7 mph - N/A   Scattered Clouds
9:30 AM 60.8 °F 55.4 °F 82% 30.18 in 6.2 mi SW 15.0 mph - N/A   Scattered Clouds
10:00 AM 62.6 °F 55.4 °F 77% 30.18 in 6.2 mi SSW 15.0 mph - N/A   Scattered Clouds
10:30 AM 64.4 °F 57.2 °F 77% 30.21 in 6.2 mi ESE 6.9 mph - N/A   Scattered Clouds
11:00 AM 64.4 °F 57.2 °F 77% 30.21 in 6.2 mi SSW 9.2 mph 20.7 mph N/A   Mostly Cloudy
11:30 AM 64.4 °F 57.2 °F 77% 30.21 in 6.2 mi SW 19.6 mph - N/A   Mostly Cloudy
12:00 PM 64.4 °F 57.2 °F 77% 30.21 in 6.2 mi SSW 19.6 mph - N/A   Mostly Cloudy
12:30 PM 66.2 °F 59.0 °F 78% 30.21 in 6.2 mi SW 19.6 mph - N/A   Mostly Cloudy
1:00 PM 66 °F 58 °F 69% 30.23 in 19 mi SW 17.9 mph - -   Partly Cloudy
1:00 PM 66.2 °F 59.0 °F 78% 30.21 in 6.2 mi SW 18.4 mph - N/A   Mostly Cloudy
1:30 PM 66.2 °F 59.0 °F 78% 30.21 in 6.2 mi SW 18.4 mph - N/A   Mostly Cloudy
2:00 PM 66.2 °F 59.0 °F 78% 30.21 in 6.2 mi SSW 16.1 mph - N/A   Mostly Cloudy
2:30 PM 66.2 °F 57.2 °F 73% 30.21 in 6.2 mi SW 15.0 mph - N/A   Mostly Cloudy
3:00 PM 68.0 °F 57.2 °F 68% 30.21 in 6.2 mi SSW 17.3 mph - N/A   Mostly Cloudy
3:30 PM 66.2 °F 57.2 °F 73% 30.21 in 6.2 mi SSW 16.1 mph - N/A   Mostly Cloudy
4:00 PM 68.0 °F 57.2 °F 68% 30.21 in 6.2 mi SW 17.3 mph - N/A   Scattered Clouds
4:30 PM 66.2 °F 57.2 °F 73% 30.21 in 6.2 mi SW 15.0 mph - N/A   Scattered Clouds
5:00 PM 64.4 °F 57.2 °F 77% 30.21 in 6.2 mi WSW 16.1 mph - N/A   Partly Cloudy
5:30 PM 62.6 °F 57.2 °F 82% 30.21 in 6.2 mi SW 13.8 mph - N/A   Partly Cloudy
6:00 PM 62.6 °F 57.2 °F 82% 30.21 in 6.2 mi WSW 11.5 mph - N/A   Partly Cloudy
6:30 PM 62.6 °F 57.2 °F 82% 30.21 in 6.2 mi SW 9.2 mph - N/A   Scattered Clouds
7:00 PM 60 °F 56 °F 83% 30.23 in 25 mi South 6.7 mph - -   Scattered Clouds
7:00 PM 60.8 °F 55.4 °F 82% 30.21 in 6.2 mi South 6.9 mph - N/A   Scattered Clouds
7:30 PM 59.0 °F 55.4 °F 88% 30.21 in 6.2 mi Variable 3.5 mph - N/A   Scattered Clouds
8:00 PM 55.4 °F 51.8 °F 88% 30.21 in 6.2 mi SE 11.5 mph - N/A   Scattered Clouds
8:30 PM 59.0 °F 55.4 °F 88% 30.21 in 6.2 mi SE 12.7 mph - N/A   Scattered Clouds
9:00 PM 57.2 °F 55.4 °F 94% 30.21 in 6.2 mi SE 11.5 mph - N/A   Scattered Clouds
9:30 PM 55.4 °F 51.8 °F 88% 30.21 in 6.2 mi SSE 6.9 mph - N/A   Scattered Clouds
10:00 PM 55.4 °F 55.4 °F 100% 30.21 in 6.2 mi SSW 9.2 mph - N/A   Partly Cloudy
10:30 PM 60.8 °F 55.4 °F 82% 30.21 in 6.2 mi SE 5.8 mph - N/A   Partly Cloudy
11:00 PM 60.8 °F 55.4 °F 82% 30.21 in 6.2 mi South 8.1 mph - N/A   Partly Cloudy
11:30 PM 60.8 °F 57.2 °F 88% 30.18 in 6.2 mi SSE 16.1 mph - N/A   Partly Cloudy